Weather History for PASD - January, 2014

Change the Weather History Date:

Sunday, January 19, 2014

  Actual Average Record
Temperature  
Mean Temperature 40 °F -  
Max Temperature 44 °F 34 °F 44 °F (1991)
Min Temperature 35 °F 28 °F 12 °F (1993)
Degree Days  
Heating Degree Days 26    
Moisture  
Dew Point 35 °F    
Average Humidity 85    
Maximum Humidity 100    
Minimum Humidity 70    
Precipitation  
Precipitation 0.00 in - - ()
Sea Level Pressure  
Sea Level Pressure 28.99 in    
Wind  
Wind Speed 15 mph (ENE)    
Max Wind Speed 26 mph    
Max Gust Speed 44 mph    
Visibility 8 miles    
Events      
Averages and records for this station are not official NWS values.
T = Trace of Precipitation, MM = Missing Value Source: NWS Daily Summary

Daily Weather History Graph

Daily Weather History Graph

Search for Another Location

Airport or City:

Trip Planner

Search our weather history database for the weather conditions in past years. The results will help you decide how hot, cold, wet, or windy it might be!

Date:

Astronomy

Jan. 19, 2014 Rise Set
Actual Time 9:54 AM AKST 5:52 PM AKST
Civil Twilight 9:11 AM AKST 6:34 PM AKST
Nautical Twilight 8:25 AM AKST 7:20 PM AKST
Astronomical Twilight 7:42 AM AKST 8:04 PM AKST
Moon 10:29 PM AKST (1/19) 10:46 AM AKST (1/19)
Length of Visible Light 9h 23m
Length of Day
7h 57m
Waning Gibbous, 88% of the Moon is Illuminated
Jan 19
Waning Gibbous
Jan 23
Last Quarter
Jan 30
New
Feb 6
First Quarter
Feb 14
Full

Hourly Weather History & Observations

Time (AKST) Temp. Windchill Dew Point Humidity Pressure Visibility Wind Dir Wind Speed Gust Speed Precip Events Conditions
12:16 AM 37.4 °F 32.1 °F 28.4 °F 70% 29.45 in 10.0 mi NE 6.9 mph - N/A   Mostly Cloudy
12:36 AM 37.4 °F 33.8 °F 28.4 °F 70% 29.44 in 10.0 mi NE 4.6 mph 19.6 mph N/A   Mostly Cloudy
12:56 AM 37.4 °F 29.3 °F 30.2 °F 75% 29.42 in 10.0 mi NE 12.7 mph 25.3 mph N/A   Overcast
1:16 AM 37.4 °F 28.9 °F 30.2 °F 75% 29.40 in 10.0 mi NE 13.8 mph 25.3 mph N/A   Mostly Cloudy
1:36 AM 37.4 °F 29.3 °F 28.4 °F 70% 29.39 in 10.0 mi NNE 12.7 mph 24.2 mph N/A   Partly Cloudy
1:56 AM 37.4 °F 28.9 °F 30.2 °F 75% 29.38 in 10.0 mi NE 13.8 mph 19.6 mph N/A   Mostly Cloudy
2:16 AM 37.4 °F 31.4 °F 30.2 °F 75% 29.36 in 10.0 mi NE 8.1 mph 18.4 mph N/A   Overcast
2:36 AM 37.4 °F 27.8 °F 30.2 °F 75% 29.34 in 10.0 mi NE 17.3 mph 26.5 mph N/A   Mostly Cloudy
2:56 AM 37.4 °F 28.5 °F 28.4 °F 70% 29.34 in 10.0 mi NNE 15.0 mph 23.0 mph N/A   Overcast
3:16 AM 37.4 °F 28.2 °F 28.4 °F 70% 29.32 in 10.0 mi NE 16.1 mph 28.8 mph N/A   Overcast
3:36 AM 37.4 °F 29.3 °F 28.4 °F 70% 29.31 in 10.0 mi NNE 12.7 mph 21.9 mph N/A   Overcast
3:56 AM 37.4 °F 28.5 °F 28.4 °F 70% 29.29 in 10.0 mi NNE 15.0 mph 28.8 mph N/A   Overcast
4:16 AM 37.4 °F 28.2 °F 28.4 °F 70% 29.28 in 10.0 mi NNE 16.1 mph 23.0 mph N/A   Overcast
4:36 AM 37.4 °F 27.8 °F 28.4 °F 70% 29.26 in 10.0 mi NNE 17.3 mph 28.8 mph N/A   Overcast
4:56 AM 37.4 °F 27.2 °F 28.4 °F 70% 29.24 in 10.0 mi NNE 19.6 mph 28.8 mph N/A   Overcast
5:16 AM 37.4 °F 26.9 °F 28.4 °F 70% 29.22 in 10.0 mi NNE 20.7 mph 32.2 mph N/A   Overcast
5:36 AM 37.4 °F 25.6 °F 28.4 °F 70% 29.20 in 7.0 mi NNE 26.5 mph 34.5 mph N/A   Overcast
5:56 AM 35.6 °F 23.7 °F 30.2 °F 81% 29.19 in 7.0 mi NNE 24.2 mph 31.1 mph N/A   Overcast
6:16 AM 35.6 °F 23.2 °F 30.2 °F 81% 29.17 in 5.0 mi NNE 26.5 mph 35.7 mph N/A   Overcast
6:36 AM 35.6 °F 24.2 °F 30.2 °F 81% 29.15 in 5.0 mi NNE 21.9 mph 33.4 mph N/A   Overcast
6:56 AM 35.6 °F 24.8 °F 30.2 °F 81% 29.13 in 10.0 mi NNE 19.6 mph 31.1 mph N/A   Overcast
7:16 AM 35.6 °F 24.0 °F 32.0 °F 87% 29.10 in 10.0 mi NNE 23.0 mph 34.5 mph N/A   Overcast
7:36 AM 35.6 °F 23.2 °F 33.8 °F 93% 29.08 in 10.0 mi NNE 26.5 mph 36.8 mph N/A   Overcast
7:56 AM 35.6 °F 24.5 °F 33.8 °F 93% 29.06 in 9.0 mi NNE 20.7 mph 29.9 mph N/A   Overcast
8:16 AM 35.6 °F 23.7 °F 33.8 °F 93% 29.05 in 3.0 mi NNE 24.2 mph 31.1 mph N/A   Overcast
8:36 AM 35.6 °F 24.5 °F 33.8 °F 93% 29.04 in 10.0 mi NNE 20.7 mph 34.5 mph N/A   Overcast
8:56 AM 35.6 °F 24.5 °F 33.8 °F 93% 29.02 in 10.0 mi NNE 20.7 mph 27.6 mph N/A   Overcast
9:16 AM 35.6 °F 24.0 °F 35.6 °F 100% 29.00 in 10.0 mi NNE 23.0 mph 34.5 mph N/A   Overcast
9:36 AM 37.4 °F 26.4 °F 35.6 °F 93% 28.99 in 10.0 mi NNE 23.0 mph 40.3 mph N/A   Overcast
9:56 AM 37.4 °F 26.1 °F 35.6 °F 93% 28.98 in 10.0 mi NNE 24.2 mph 36.8 mph N/A   Overcast
10:16 AM 37.4 °F 26.1 °F 35.6 °F 93% 28.96 in 10.0 mi NNE 24.2 mph 35.7 mph N/A   Overcast
10:36 AM 37.4 °F 26.1 °F 35.6 °F 93% 28.95 in 10.0 mi NNE 24.2 mph 32.2 mph N/A   Overcast
10:56 AM 39.2 °F 29.3 °F 35.6 °F 87% 28.94 in 10.0 mi NNE 20.7 mph 35.7 mph N/A   Overcast
11:16 AM 39.2 °F 28.0 °F 35.6 °F 87% 28.92 in 10.0 mi NNE 26.5 mph 38.0 mph N/A   Overcast
11:36 AM 39.2 °F 29.6 °F 35.6 °F 87% 28.91 in 10.0 mi NNE 19.6 mph 33.4 mph N/A   Overcast
11:56 AM 39.2 °F 29.3 °F 35.6 °F 87% 28.90 in 10.0 mi NNE 20.7 mph 32.2 mph N/A   Overcast
12:16 PM 37.4 °F 28.5 °F 37.4 °F 100% 28.88 in 8.0 mi NNE 15.0 mph 28.8 mph N/A   Overcast
12:36 PM 39.2 °F 29.3 °F 37.4 °F 93% 28.86 in 10.0 mi NNE 20.7 mph 29.9 mph N/A   Overcast
12:56 PM 39.2 °F 29.3 °F 37.4 °F 93% 28.84 in 8.0 mi NNE 20.7 mph 32.2 mph N/A   Overcast
1:16 PM 39.2 °F 29.3 °F 37.4 °F 93% 28.82 in 7.0 mi NNE 20.7 mph 33.4 mph N/A   Overcast
1:36 PM 39.2 °F 29.3 °F 37.4 °F 93% 28.80 in 7.0 mi NNE 20.7 mph 32.2 mph N/A   Overcast
1:56 PM 39.2 °F 29.3 °F 37.4 °F 93% 28.78 in 7.0 mi NNE 20.7 mph 29.9 mph N/A   Overcast
2:16 PM 42.8 °F 33.8 °F 39.2 °F 87% 28.76 in 7.0 mi NNE 21.9 mph 34.5 mph N/A   Overcast
2:36 PM 42.8 °F 33.8 °F 39.2 °F 87% 28.75 in 7.0 mi NNE 21.9 mph 43.7 mph N/A   Overcast
2:56 PM 42.8 °F 36.2 °F 39.2 °F 87% 28.74 in 3.0 mi NE 12.7 mph 31.1 mph N/A   Overcast
3:16 PM 41.0 °F 32.8 °F 39.2 °F 93% 28.73 in 5.0 mi NE 16.1 mph 33.4 mph N/A   Overcast
3:36 PM 42.8 °F 36.6 °F 39.2 °F 87% 28.72 in 5.0 mi NE 11.5 mph 28.8 mph N/A   Overcast
3:56 PM 41.0 °F 36.4 °F 39.2 °F 93% 28.71 in 5.0 mi NE 6.9 mph 26.5 mph N/A   Overcast
4:16 PM 41.0 °F 37.1 °F 39.2 °F 93% 28.71 in 5.0 mi NE 5.8 mph 17.3 mph N/A   Overcast
4:36 PM 42.8 °F 39.3 °F 39.2 °F 87% 28.72 in 5.0 mi East 5.8 mph 17.3 mph N/A   Overcast
5:16 PM 42.8 °F 39.3 °F 39.2 °F 87% 28.75 in 8.0 mi SE 5.8 mph - N/A   Overcast
5:36 PM 42.8 °F 38.6 °F 39.2 °F 87% 28.76 in 8.0 mi SE 6.9 mph - N/A   Overcast
5:56 PM 41.0 °F 35.2 °F 39.2 °F 93% 28.77 in 7.0 mi SE 9.2 mph - N/A   Overcast
6:16 PM 41.0 °F 37.1 °F 39.2 °F 93% 28.79 in 7.0 mi SSE 5.8 mph - N/A   Overcast
6:36 PM 42.8 °F 37.0 °F 39.2 °F 87% 28.80 in 7.0 mi SSE 10.4 mph - N/A   Overcast
6:56 PM 42.8 °F 38.0 °F 39.2 °F 87% 28.81 in 6.0 mi SSE 8.1 mph 23.0 mph N/A   Overcast
7:16 PM 42.8 °F 35.8 °F 39.2 °F 87% 28.82 in 6.0 mi SE 13.8 mph 23.0 mph N/A   Overcast
7:36 PM 42.8 °F 38.6 °F 39.2 °F 87% 28.83 in 6.0 mi SE 6.9 mph 17.3 mph N/A   Overcast
7:56 PM 42.8 °F 35.4 °F 39.2 °F 87% 28.84 in 6.0 mi SSE 15.0 mph 24.2 mph N/A   Overcast
8:16 PM 42.8 °F 39.3 °F 39.2 °F 87% 28.84 in 9.0 mi SE 5.8 mph - N/A   Overcast
8:36 PM 42.8 °F 35.1 °F 39.2 °F 87% 28.85 in 7.0 mi SE 16.1 mph 24.2 mph N/A   Overcast
8:56 PM 42.8 °F 35.4 °F 39.2 °F 87% 28.84 in 8.0 mi SSE 15.0 mph 24.2 mph N/A   Overcast
9:16 PM 42.8 °F 35.4 °F 39.2 °F 87% 28.85 in 5.0 mi SE 15.0 mph 32.2 mph N/A   Overcast
9:36 PM 42.8 °F 35.8 °F 39.2 °F 87% 28.85 in 7.0 mi SE 13.8 mph 26.5 mph N/A   Overcast
9:56 PM 42.8 °F 36.6 °F 39.2 °F 87% 28.85 in 10.0 mi SSE 11.5 mph 21.9 mph N/A   Overcast
10:16 PM 44.6 °F 38.1 °F 39.2 °F 81% 28.85 in 10.0 mi SSE 13.8 mph 23.0 mph N/A   Overcast
10:36 PM 44.6 °F 39.7 °F 37.4 °F 76% 28.85 in 9.0 mi SE 9.2 mph 25.3 mph N/A   Overcast
10:56 PM 42.8 °F 34.5 °F 39.2 °F 87% 28.84 in 8.0 mi SSE 18.4 mph 25.3 mph N/A   Mostly Cloudy
11:16 PM 44.6 °F 39.7 °F 39.2 °F 81% 28.85 in 10.0 mi SE 9.2 mph 24.2 mph N/A   Mostly Cloudy
11:36 PM 42.8 °F 36.2 °F 39.2 °F 87% 28.86 in 5.0 mi SE 12.7 mph 28.8 mph N/A   Overcast
11:56 PM 42.8 °F 37.0 °F 39.2 °F 87% 28.86 in 9.0 mi SSE 10.4 mph 20.7 mph N/A   Overcast